sat.trackr.live / text

‹ back to catalog

STARLINK-1276

NORAD 45368 · 2020-019J

PAYLOAD ACTIVE UNKNOWN

§ Identity

Operator
Country
US
Launch date
2020-03-18
Launch site
AFETR
Launch vehicle
Mass (kg)
RCS (m²)

Purposes: comms

External: N2YO · Heavens-Above · Gunter

§ Orbital elements

Epoch: 2026-09-19T19:16:59.356992Z

Period
94.82 min
Inclination
53.0697°
Eccentricity
0.0000938
Mean motion
15.18661997 rev/d
Perigee alt
509.2 km
Apogee alt
510.5 km
Semi-major
6,888.0 km
B*
6.7406e-4
RAAN
4.2925°
Arg perigee
41.0707°
Mean anomaly
319.0358°
Rev number
35,915

§ Raw data

STARLINK-12761 45368U 20019J   26262.80346478  .00013850  00000+0  67406-3 0  99982 45368  53.0697   4.2925 0000938  41.0707 319.0358 15.18661997359154

JSON: /api/v1/satellites/45368 · /tle

For live sub-satellite position, see the globe view (requires WebGL).

§ Visibility from observer

Set your observer location to see the next 7 days of passes ≥ 10°. The values pass through the URL so the page stays shareable.

No JS? Fill the form by hand. The geolocation button needs JavaScript.